Regional Weather Roundup
Issued by NWS Albany, NY

Home | Current Version | Previous Version | Graphics & Text | Print | Product List | Glossary Off
Versions: 1 2 3 4 5 6 7 8 9 10 11 12 13 14 15 16 17 18 19 20 21 22 23 24 25 26 27 28 29 30 31 32 33 34 35 36 37 38 39 40 41 42 43 44 45 46 47 48 49 50

000
ASUS41 KALY 260310
RWRALY

NEW YORK STATE HOURLY WEATHER ROUNDUP
NATIONAL WEATHER SERVICE ALBANY NY
1100 PM EDT FRI JUL 25 2014

NOTE: "FAIR" INDICATES FEW OR NO CLOUDS BELOW 12,000 FEET WITH NO
SIGNIFICANT WEATHER AND/OR NO OBSTRUCTIONS TO VISIBILITY.

NYZ032-033-038>043-046>054-057>066-NYZ062>081-260400-
EAST


CITY           SKY/WX    TMP DP  RH WIND       PRES   REMARKS
ALBANY         MOCLDY    67  60  78 CALM      29.98S
GLENS FALLS    CLEAR     62  56  80 S3        29.97R
POUGHKEEPSIE   CLEAR     63  60  90 CALM      29.99S
NEWBURGH       CLEAR     66  57  72 CALM      30.02
MONTGOMERY     CLEAR     61  57  87 S3        30.00S
WHITE PLAINS   CLEAR     66  60  81 CALM      30.01F
ISLIP          PTCLDY    71  62  73 SW7       30.01S
NEW YORK CITY  PTCLDY    74  59  59 SW10      30.00F
CENTRAL PARK   CLEAR     73  58  59 VRB7      30.04F
$$

NYZ005>009-017-018-044>046-055-056-260400-
CENTRAL


CITY           SKY/WX    TMP DP  RH WIND       PRES   REMARKS
FULTON         CLEAR     59  55  87 CALM      29.97S
SYRACUSE       PTCLDY    65  58  78 CALM      29.96F
ROME           CLEAR     61  56  83 SE3       29.98F
ELMIRA         PTCLDY    58  57  97 CALM      29.99S
BINGHAMTON     PTCLDY    64  54  69 S3        30.02S
MONTICELLO     PTCLDY    63  55  77 CALM      30.05S
$$

NYZ026>034-041>043-260400-
NORTH


CITY           SKY/WX    TMP DP  RH WIND       PRES   REMARKS
WATERTOWN      CLEAR     62  52  69 CALM      29.95S
FORT DRUM      NOT AVBL
MASSENA        CLEAR     62  54  74 SW7       29.93R
SARANAC LAKE   CLEAR     50  48  93 CALM      29.98S
PLATTSBURGH    CLEAR     69  51  52 S6        29.92F
$$

NYZ001>004-010>016-019>021-260400-
WEST


CITY           SKY/WX    TMP DP  RH WIND       PRES   REMARKS
NIAGARA FALLS  MOCLDY    65  55  70 SW9       29.97S
BUFFALO        MOCLDY    68  55  63 SW9       29.98S
DUNKIRK        MOCLDY    61  56  83 S6        30.00F
JAMESTOWN      MOCLDY    52  52 100 CALM      30.04R
WELLSVILLE     PTCLDY    59  50  72 NW5       30.06S
ROCHESTER      CLEAR     63  53  70 SW5       29.98S
PENN YAN       CLEAR     65  57  75 CALM      30.00S
$$

             KEY
       WCI = WIND CHILL INDEX
       VSB = VISIBILITY
       HX  = HEAT INDEX
$$



USA.gov is the U.S. government's official web portal to all federal, state and local government web resources and services.